Location: Igloolik
(69.3800°N, 81.8000°W)
Time: 20:40:08
(UTC-06:00)

Amateur Radio Satellites - All Passes

Search period start: 09 February 2016 20:10
Search period end: 10 February 2016 20:10
Location: Igloolik, 69.3800°N, 81.8000°W

Satellite Date Start Highest point End Downlink Frequencies (MHz)
Time Altitude Azimuth
CUBEBUG 2 09 Feb 20:10:47 20:14:40 34° 265° (W) 20:18:31 437.445
UKube-1 09 Feb 20:11:22 20:15:35 50° 51° (NE) 20:19:49 .
UWE-3 09 Feb 20:11:48 20:15:46 39° 262° (W) 20:19:43 435.000/436.395/437.385
Oscar 11 09 Feb 20:12:32 20:16:38 41° 261° (W) 20:20:48 145.826/435.025
CUBESAT XI-V 09 Feb 20:13:39 20:17:51 32° 322° (NW) 20:22:01 437.345
ANTELSAT 09 Feb 20:14:44 20:16:44 13° 75° (ENE) 20:18:43 437.575/2403.000
COMPASS 1 09 Feb 20:15:51 20:19:17 24° 272° (W) 20:22:46 437.405
CUBEBUG 1 09 Feb 20:17:34 20:21:51 49° 52° (NE) 20:26:09 437.445
PRISM 09 Feb 20:17:44 20:21:59 74° 112° (ESE) 20:26:11 437.425
ESTCUBE 1 09 Feb 20:17:59 20:22:27 57° 55° (NE) 20:26:57 437.505/2401.250
SPROUT 09 Feb 20:21:28 20:25:21 34° 43° (NE) 20:29:13 437.525
TIGRISAT 09 Feb 20:21:36 20:23:47 14° 76° (ENE) 20:25:58 435.000
DX 1 09 Feb 20:22:52 20:27:13 60° 56° (NE) 20:31:33 434.975-435.025
CUTE 1.7 + AOD 2 09 Feb 20:23:53 20:26:46 18° 279° (W) 20:29:41 437.475
DELFI C3 09 Feb 20:24:05 20:27:57 46° 259° (W) 20:31:53 145.870
SWISSCUBE 09 Feb 20:26:06 20:29:50 23° 18° (NNE) 20:33:35 437.505
SEEDS 09 Feb 20:30:29 20:33:26 18° 278° (W) 20:36:25 437.485
TISAT 1 09 Feb 20:31:44 20:35:17 27° 36° (NE) 20:38:52 437.305
50 SAT 09 Feb 20:38:54 20:42:37 68° 61° (ENE) 20:46:24 437.505
BEESAT 3 09 Feb 20:39:04 20:42:54 44° 174° (S) 20:46:42 437.485
Cosmos 2491 09 Feb 20:39:05 20:46:59 36° 5° (N) 20:54:55 435.465 / 435.565
AAUSAT CUBESAT 2 09 Feb 20:45:27 20:48:27 19° 277° (W) 20:51:29 437.432
AIST 1 09 Feb 20:46:45 20:51:07 63° 257° (WSW) 20:55:26
DOVE 4 09 Feb 20:48:14 20:49:31 11° 291° (WNW) 20:50:46 437.250
STRAND 1 09 Feb 20:48:16 20:53:21 57° 309° (NW) 20:58:25 437.568
STARS 09 Feb 21:01:42 21:04:37 18° 0° (N) 21:07:31 437.465
ITUPSAT 1 09 Feb 21:02:20 21:06:17 26° 26° (NNE) 21:10:16 437.325
BEESAT 2 09 Feb 21:02:54 21:06:47 44° 175° (S) 21:10:37 435.950
UNISAT 6 09 Feb 21:05:39 21:09:07 23° 87° (E) 21:12:36 437.425
ZACube-1 09 Feb 21:07:19 21:10:45 24° 272° (W) 21:14:11 437.345
MOZHAYETS 4 09 Feb 21:10:20 21:13:25 18° 358° (N) 21:16:32
BEESAT 09 Feb 21:10:48 21:14:48 27° 28° (NNE) 21:18:49 436.000
Cosmos 2499 09 Feb 21:13:47 21:22:07 51° 273° (W) 21:29:57 435.465 / 435.565
FUNcube-1 09 Feb 21:16:44 21:20:00 22° 273° (W) 21:23:18 145.935
VELOX 1 09 Feb 21:16:45 21:21:15 81° 248° (WSW) 21:25:45 145.980
KKS-1 09 Feb 21:17:40 21:20:46 19° 10° (N) 21:23:50 437.445
AIST 2 09 Feb 21:19:09 21:23:00 36° 157° (SSE) 21:26:50 435.215
POLYITAN 1 09 Feb 21:21:05 21:23:21 14° 77° (ENE) 21:25:36 437.675
QB50P2 09 Feb 21:21:42 21:24:02 14° 78° (ENE) 21:26:23 145.880/145.840
HUMSAT D 09 Feb 21:26:52 21:30:35 32° 265° (W) 21:34:20 437.325/437.525
AISAT 09 Feb 21:33:31 21:37:59 66° 252° (WSW) 21:42:28 437.250
CUSAT 1 09 Feb 21:39:01 21:41:07 11° 49° (NE) 21:43:09 437.405
HO-68 09 Feb 21:40:38 21:44:43 16° 296° (WNW) 21:48:49 435.675
GONETS M04 09 Feb 21:42:53 21:50:08 31° 291° (WNW) 21:57:24
UKube-1 09 Feb 21:47:24 21:51:42 57° 254° (WSW) 21:56:02 .
ANTELSAT 09 Feb 21:50:37 21:54:41 39° 98° (E) 21:58:46 437.575/2403.000
CUBESAT XI-V 09 Feb 21:50:49 21:54:15 20° 345° (NNW) 21:57:41 437.345
POPSAT HIP 1 09 Feb 21:51:10 21:54:18 20° 84° (E) 21:57:24 437.405
CUBEBUG 2 09 Feb 21:51:22 21:52:36 11° 288° (WNW) 21:53:50 437.445
UWE-3 09 Feb 21:51:33 21:53:26 13° 285° (WNW) 21:55:18 435.000/436.395/437.385
Oscar 11 09 Feb 21:51:41 21:53:57 14° 284° (WNW) 21:56:14 145.826/435.025
PRISM 09 Feb 21:53:15 21:57:12 39° 313° (NW) 22:01:07 437.425
CUBEBUG 1 09 Feb 21:53:48 21:58:12 59° 254° (WSW) 22:02:36 437.445
ESTCUBE 1 09 Feb 21:54:58 21:59:26 51° 257° (WSW) 22:03:55 437.505/2401.250
NANOSAT C BR1 09 Feb 21:55:57 21:59:09 21° 85° (E) 22:02:20 145.865
SPROUT 09 Feb 21:56:45 22:01:04 89° 58° (ENE) 22:05:24 437.525
RS-15 09 Feb 21:56:59 22:05:00 22° 264° (W) 22:13:10 29.354- 29.394
DUCHIFAT 1 09 Feb 21:57:27 22:00:38 20° 85° (E) 22:03:48 145.980
TIGRISAT 09 Feb 21:57:34 22:01:39 41° 99° (E) 22:05:46 435.000
DX 1 09 Feb 21:59:22 22:03:37 46° 258° (WSW) 22:07:53 434.975-435.025
DELFI C3 09 Feb 22:01:37 22:03:53 14° 281° (WNW) 22:06:10 145.870
YUBILEINY 09 Feb 22:01:38 22:03:56 11° 24° (NNE) 22:06:14 435.215
SWISSCUBE 09 Feb 22:02:21 22:06:46 38° 42° (NE) 22:11:14 437.505
QB50P1 09 Feb 22:03:45 22:07:09 23° 88° (E) 22:10:32 145.935-145.965
TISAT 1 09 Feb 22:06:19 22:10:31 65° 59° (ENE) 22:14:43 437.305
DANDE 09 Feb 22:09:41 22:13:10 13° 47° (NE) 22:16:34 436.750
50 SAT 09 Feb 22:13:33 22:16:58 33° 263° (W) 22:20:26 437.505
BEESAT 3 09 Feb 22:16:30 22:20:14 38° 197° (SSW) 22:23:57 437.485
AIST 1 09 Feb 22:24:52 22:28:04 20° 280° (W) 22:31:15
STRAND 1 09 Feb 22:27:28 22:31:54 30° 332° (NNW) 22:36:20 437.568
STARS 09 Feb 22:36:31 22:39:52 22° 23° (NNE) 22:43:14 437.465
JAS-2 09 Feb 22:36:57 22:39:04 12° 57° (ENE) 22:41:06 435.910
Cosmos 2491 09 Feb 22:37:48 22:46:12 47° 36° (NE) 22:54:35 435.465 / 435.565
ITUPSAT 1 09 Feb 22:38:49 22:43:26 49° 49° (NE) 22:48:06 437.325
BEESAT 2 09 Feb 22:40:29 22:44:14 38° 199° (SSW) 22:47:58 435.950
UNISAT 6 09 Feb 22:42:16 22:46:35 73° 110° (ESE) 22:50:55 437.425
MOZHAYETS 4 09 Feb 22:45:55 22:49:25 22° 22° (NNE) 22:52:55
BEESAT 09 Feb 22:47:18 22:51:58 53° 51° (NE) 22:56:39 436.000
KKS-1 09 Feb 22:52:33 22:56:20 27° 33° (NNE) 23:00:06 437.445
VELOX 1 09 Feb 22:54:34 22:58:23 27° 270° (W) 23:02:12 145.980
POLYITAN 1 09 Feb 22:56:14 23:00:17 43° 100° (E) 23:04:19 437.675
QB50P2 09 Feb 22:56:52 23:00:58 44° 101° (E) 23:05:01 145.880/145.840
AIST 2 09 Feb 22:57:01 23:01:02 46° 180° (S) 23:05:02 435.215
BUGSAT 1 09 Feb 22:59:33 23:03:15 30° 94° (E) 23:06:51 437.445
HUMSAT D 09 Feb 23:06:47 23:07:32 10° 288° (WNW) 23:08:17 437.325/437.525
Cosmos 2499 09 Feb 23:06:56 23:13:27 24° 300° (WNW) 23:19:42 435.465 / 435.565
AISAT 09 Feb 23:11:49 23:15:18 22° 274° (W) 23:18:48 437.250
CUSAT 1 09 Feb 23:15:01 23:21:08 25° 73° (ENE) 23:26:49 437.405
Oscar 19 09 Feb 23:17:30 23:20:45 17° 75° (ENE) 23:24:00 437.125/150
UKube-1 09 Feb 23:25:34 23:28:41 19° 276° (W) 23:31:48 .
POPSAT HIP 1 09 Feb 23:26:43 23:30:56 62° 107° (ESE) 23:35:06 437.405
CUBESAT XI-V 09 Feb 23:27:06 23:30:24 19° 9° (N) 23:33:42 437.345
ANTELSAT 09 Feb 23:27:27 23:31:43 68° 301° (WNW) 23:36:03 437.575/2403.000
PRISM 09 Feb 23:28:38 23:31:47 21° 336° (NNW) 23:34:55 437.425
NANOSAT C BR1 09 Feb 23:31:29 23:35:42 65° 108° (ESE) 23:39:53 145.865
CUBEBUG 1 09 Feb 23:32:09 23:35:24 20° 277° (W) 23:38:39 437.445
DUCHIFAT 1 09 Feb 23:32:57 23:37:09 65° 108° (ESE) 23:41:19 145.980
SPROUT 09 Feb 23:33:48 23:37:35 29° 268° (W) 23:41:22 437.525
ESTCUBE 1 09 Feb 23:34:14 23:37:17 17° 280° (W) 23:40:23 437.505/2401.250
TIGRISAT 09 Feb 23:34:23 23:38:38 64° 302° (WNW) 23:42:55 435.000
DX 1 09 Feb 23:38:15 23:40:54 16° 281° (W) 23:43:34 434.975-435.025
Cosmos 2504 09 Feb 23:39:16 23:41:14 11° 23° (NNE) 23:43:12 435.465 / 435.565
QB50P1 09 Feb 23:39:24 23:43:39 74° 111° (ESE) 23:47:52 145.935-145.965
SWISSCUBE 09 Feb 23:39:32 23:44:20 89° 226° (SW) 23:49:12 437.505
GONETS M04 09 Feb 23:39:43 23:44:07 15° 320° (NW) 23:48:31
TISAT 1 09 Feb 23:42:29 23:46:29 40° 261° (W) 23:50:29 437.305
DANDE 09 Feb 23:47:04 23:53:42 27° 72° (ENE) 00:00:11 436.750
Gurwin Techsat 1B 09 Feb 23:47:56 23:50:55 15° 72° (ENE) 23:53:54 435.225
YUBILEINY 09 Feb 23:51:11 23:57:13 21° 54° (NE) 00:03:15 435.215
BEESAT 3 09 Feb 23:54:12 23:57:18 22° 220° (SW) 00:00:22 437.485
STRAND 1 10 Feb 00:06:01 00:10:00 23° 356° (N) 00:13:58 437.568
STARS 10 Feb 00:11:22 00:15:30 41° 46° (NE) 00:19:38 437.465
ITUPSAT 1 10 Feb 00:16:31 00:21:18 65° 252° (WSW) 00:26:08 437.325
BEESAT 2 10 Feb 00:18:21 00:21:25 21° 221° (SW) 00:24:27 435.950
UNISAT 6 10 Feb 00:19:11 00:23:12 40° 312° (NW) 00:27:15 437.425
JAS-2 10 Feb 00:21:08 00:26:34 30° 84° (E) 00:31:29 435.910
MOZHAYETS 4 10 Feb 00:21:29 00:25:45 39° 45° (NE) 00:30:03
BEESAT 10 Feb 00:25:07 00:29:51 58° 254° (WSW) 00:34:37 436.000
ITAMSAT 1 10 Feb 00:26:15 00:29:19 16° 74° (ENE) 00:32:25 435.822/435.867
KKS-1 10 Feb 00:27:59 00:32:24 61° 56° (NE) 00:36:49 437.445
POLYITAN 1 10 Feb 00:32:10 00:36:20 61° 302° (WNW) 00:40:29 437.675
QB50P2 10 Feb 00:32:49 00:37:00 59° 303° (WNW) 00:41:09 145.880/145.840
BUGSAT 1 10 Feb 00:34:57 00:39:06 81° 295° (WNW) 00:43:08 437.445
AIST 2 10 Feb 00:35:14 00:39:04 35° 203° (SSW) 00:42:53 435.215
Cosmos 2491 10 Feb 00:35:28 00:44:16 81° 64° (ENE) 00:53:05 435.465 / 435.565
CUSAT 1 10 Feb 00:54:26 01:02:14 52° 96° (E) 01:09:17 437.405
Oscar 19 10 Feb 00:56:28 01:01:27 44° 100° (E) 01:06:22 437.125/150
Cosmos 2499 10 Feb 01:00:17 01:03:27 12° 328° (NNW) 01:06:34 435.465 / 435.565
POPSAT HIP 1 10 Feb 01:02:41 01:06:43 44° 309° (NW) 01:10:44 437.405
CUBESAT XI-V 10 Feb 01:02:44 01:06:42 27° 32° (NNE) 01:10:41 437.345
PRISM 10 Feb 01:03:23 01:06:01 16° 359° (N) 01:08:39 437.425
ANTELSAT 10 Feb 01:04:22 01:08:02 28° 323° (NW) 01:11:43 437.575/2403.000
NANOSAT C BR1 10 Feb 01:07:24 01:11:24 43° 310° (NW) 01:15:23 145.865
DUCHIFAT 1 10 Feb 01:08:50 01:12:50 43° 310° (NW) 01:16:48 145.980
TIGRISAT 10 Feb 01:11:17 01:14:53 27° 324° (NW) 01:18:30 435.000
AO-7 10 Feb 01:12:12 01:17:57 20° 69° (ENE) 01:23:39 29.400- 29.500
QB50P1 10 Feb 01:15:23 01:19:20 39° 312° (NW) 01:23:16 145.935-145.965
SWISSCUBE 10 Feb 01:18:27 01:22:44 32° 267° (W) 01:27:03 437.505
TISAT 1 10 Feb 01:21:19 01:23:19 13° 284° (WNW) 01:25:20 437.305
Cosmos 2504 10 Feb 01:25:20 01:31:09 20° 51° (NE) 01:36:57 435.465 / 435.565
DANDE 10 Feb 01:27:17 01:35:23 54° 95° (E) 01:43:16 436.750
Gurwin Techsat 1B 10 Feb 01:27:24 01:32:25 39° 96° (E) 01:37:25 435.225
YUBILEINY 10 Feb 01:43:43 01:51:50 44° 81° (E) 02:00:00 435.215
STRAND 1 10 Feb 01:43:47 01:48:01 26° 20° (NNE) 01:52:16 437.568
STARS 10 Feb 01:47:20 01:51:45 75° 248° (WSW) 01:56:11 437.465
UNISAT 6 10 Feb 01:56:00 01:59:11 21° 335° (NNW) 02:02:24 437.425
ITUPSAT 1 10 Feb 01:56:15 02:00:02 23° 275° (W) 02:03:52 437.325
MOZHAYETS 4 10 Feb 01:58:07 02:02:43 83° 246° (WSW) 02:07:24
KKS-1 10 Feb 02:04:53 02:09:12 46° 258° (WSW) 02:13:32 437.445
BEESAT 10 Feb 02:05:03 02:08:38 21° 277° (W) 02:12:14 436.000
ITAMSAT 1 10 Feb 02:05:16 02:10:15 41° 98° (E) 02:15:13 435.822/435.867
JAS-2 10 Feb 02:06:23 02:12:45 76° 111° (ESE) 02:18:22 435.910
POLYITAN 1 10 Feb 02:08:09 02:11:40 26° 325° (NW) 02:15:10 437.675
QB50P2 10 Feb 02:08:49 02:12:18 26° 326° (NW) 02:15:47 145.880/145.840
BUGSAT 1 10 Feb 02:10:33 02:14:10 30° 319° (NW) 02:17:44 437.445
AIST 2 10 Feb 02:13:50 02:16:44 18° 226° (SW) 02:19:37 435.215
Cosmos 2491 10 Feb 02:32:32 02:40:51 51° 272° (W) 02:49:10 435.465 / 435.565
Oscar 19 10 Feb 02:35:58 02:41:08 71° 303° (WNW) 02:46:16 437.125/150
CUSAT 1 10 Feb 02:36:12 02:44:25 82° 299° (WNW) 02:51:43 437.405
PRISM 10 Feb 02:37:09 02:40:14 20° 22° (NNE) 02:43:19 437.425
POPSAT HIP 1 10 Feb 02:38:36 02:41:51 22° 332° (NNW) 02:45:04 437.405
CUBESAT XI-V 10 Feb 02:38:52 02:43:30 57° 55° (NE) 02:48:10 437.345
ANTELSAT 10 Feb 02:40:57 02:43:47 18° 346° (NNW) 02:46:38 437.575/2403.000
NANOSAT C BR1 10 Feb 02:43:16 02:46:27 21° 333° (NNW) 02:49:38 145.865
DUCHIFAT 1 10 Feb 02:44:40 02:47:51 21° 333° (NNW) 02:51:01 145.980
TIGRISAT 10 Feb 02:47:48 02:50:35 17° 347° (NNW) 02:53:23 435.000
QB50P1 10 Feb 02:51:15 02:54:22 20° 335° (NNW) 02:57:28 145.935-145.965
SWISSCUBE 10 Feb 03:00:42 03:02:07 11° 291° (WNW) 03:03:32 437.505
AO-7 10 Feb 03:05:22 03:13:18 43° 97° (E) 03:21:09 29.400- 29.500
Gurwin Techsat 1B 10 Feb 03:07:31 03:12:53 81° 299° (WNW) 03:18:14 435.225
HORYU 2 10 Feb 03:08:26 03:12:03 23° 88° (E) 03:15:38 437.375
DANDE 10 Feb 03:09:45 03:18:15 81° 299° (WNW) 03:26:26 436.750
Cosmos 2504 10 Feb 03:14:19 03:22:17 40° 79° (ENE) 03:30:18 435.465 / 435.565
STRAND 1 10 Feb 03:21:30 03:26:24 45° 44° (NE) 03:31:18 437.568
M-CUBED/EXP-1 PRIME 10 Feb 03:23:46 03:25:53 16° 98° (E) 03:27:59 437.505
STARS 10 Feb 03:25:13 03:28:51 24° 271° (W) 03:32:28 437.465
GONETS M04 10 Feb 03:28:20 03:29:27 10° 20° (NNE) 03:30:33
UNISAT 6 10 Feb 03:32:08 03:34:47 16° 359° (N) 03:37:26 437.425
AUBIESAT-1 10 Feb 03:33:22 03:35:36 17° 98° (E) 03:37:52 437.475
MOZHAYETS 4 10 Feb 03:36:36 03:40:34 28° 271° (W) 03:44:34
YUBILEINY 10 Feb 03:39:10 03:48:02 88° 111° (ESE) 03:56:58 435.215
POLYITAN 1 10 Feb 03:43:47 03:46:29 17° 348° (NNW) 03:49:11 437.675
CUTE-I 10 Feb 03:44:08 03:46:41 13° 69° (ENE) 03:49:14 437.470
KKS-1 10 Feb 03:44:11 03:46:54 16° 281° (WNW) 03:49:36 437.445
QB50P2 10 Feb 03:44:25 03:47:07 17° 349° (NNW) 03:49:49 145.880/145.840
ITAMSAT 1 10 Feb 03:44:54 03:50:10 77° 301° (WNW) 03:55:26 435.822/435.867
BUGSAT 1 10 Feb 03:45:55 03:48:40 17° 342° (NNW) 03:51:23 437.445
JAS-2 10 Feb 03:51:34 03:57:45 51° 317° (NW) 04:03:14 435.910
Cubesat XI-IV 10 Feb 03:57:39 04:00:47 15° 72° (ENE) 04:03:53 437.490
PRISM 10 Feb 04:10:55 04:14:47 37° 45° (NE) 04:18:42 437.425
POPSAT HIP 1 10 Feb 04:13:57 04:16:32 16° 355° (N) 04:19:06 437.405
Oscar 19 10 Feb 04:15:23 04:20:01 34° 326° (NW) 04:24:37 437.125/150
CUBESAT XI-V 10 Feb 04:16:26 04:21:03 52° 258° (WSW) 04:25:43 437.345
ANTELSAT 10 Feb 04:16:35 04:19:19 17° 10° (N) 04:22:04 437.575/2403.000
NANOSAT C BR1 10 Feb 04:18:32 04:21:06 16° 356° (N) 04:23:39 145.865
CUSAT 1 10 Feb 04:19:49 04:27:35 47° 322° (NW) 04:34:23 437.405
DUCHIFAT 1 10 Feb 04:19:55 04:22:27 16° 356° (N) 04:25:00 145.980
TIGRISAT 10 Feb 04:23:21 04:26:06 17° 11° (N) 04:28:51 435.000
QB50P1 10 Feb 04:26:28 04:29:01 16° 359° (N) 04:31:35 145.935-145.965
BRITE-PL 10 Feb 04:26:36 04:29:35 15° 71° (ENE) 04:32:26 437.365/2234.400
Cosmos 2491 10 Feb 04:29:22 04:35:53 24° 300° (WNW) 04:42:24 435.465 / 435.565
LilacSat-2 10 Feb 04:36:07 04:38:27 15° 81° (E) 04:40:46 437.200
Cosmos 2499 10 Feb 04:39:26 04:41:35 11° 26° (NNE) 04:43:43 435.465 / 435.565
HORYU 2 10 Feb 04:44:54 04:49:22 72° 110° (ESE) 04:53:49 437.375
Gurwin Techsat 1B 10 Feb 04:47:35 04:52:30 38° 323° (NW) 04:57:24 435.225
SO-50 10 Feb 04:50:14 04:53:17 16° 126° (SE) 04:56:20 436.795
DANDE 10 Feb 04:54:01 05:02:14 49° 324° (NW) 05:09:57 436.750
M-CUBED/EXP-1 PRIME 10 Feb 04:57:58 05:01:14 58° 119° (ESE) 05:04:33 437.505
AO-7 10 Feb 04:58:41 05:07:07 85° 123° (ESE) 05:15:30 29.400- 29.500
STRAND 1 10 Feb 05:00:17 05:05:27 79° 248° (WSW) 05:10:39 437.568
Cosmos 2504 10 Feb 05:06:03 05:14:54 81° 105° (ESE) 05:23:49 435.465 / 435.565
UNISAT 6 10 Feb 05:07:15 05:10:21 20° 22° (NNE) 05:13:28 437.425
AUBIESAT-1 10 Feb 05:07:34 05:10:52 61° 120° (ESE) 05:14:16 437.475
HO-68 10 Feb 05:10:28 05:13:57 14° 61° (ENE) 05:17:25 435.675
DOVE 4 10 Feb 05:12:58 05:14:06 11° 68° (ENE) 05:15:14 437.250
GONETS M04 10 Feb 05:17:05 05:22:36 19° 50° (NE) 05:28:08
POLYITAN 1 10 Feb 05:18:26 05:21:07 17° 12° (NNE) 05:23:48 437.675
QB50P2 10 Feb 05:19:01 05:21:44 17° 12° (NNE) 05:24:28 145.880/145.840
BUGSAT 1 10 Feb 05:20:27 05:22:53 15° 5° (N) 05:25:19 437.445
CUTE-I 10 Feb 05:23:28 05:28:25 35° 93° (E) 05:33:21 437.470
ITAMSAT 1 10 Feb 05:24:29 05:29:16 37° 324° (NW) 05:34:03 435.822/435.867
GOMX 1 10 Feb 05:31:32 05:35:02 20° 80° (E) 05:38:22 467.674
JAS-2 10 Feb 05:36:15 05:41:55 32° 343° (NNW) 05:47:02 435.910
YUBILEINY 10 Feb 05:37:10 05:45:46 52° 317° (NW) 05:54:26 435.215
Cubesat XI-IV 10 Feb 05:37:18 05:42:23 40° 96° (E) 05:47:28 437.490
PRISM 10 Feb 05:45:45 05:49:58 80° 247° (WSW) 05:54:13 437.425
POPSAT HIP 1 10 Feb 05:48:15 05:51:09 18° 19° (NNE) 05:54:04 437.405
ANTELSAT 10 Feb 05:51:31 05:55:01 25° 33° (NNE) 05:58:32 437.575/2403.000
NANOSAT C BR1 10 Feb 05:52:46 05:55:41 18° 20° (NNE) 05:58:36 145.865
DUCHIFAT 1 10 Feb 05:54:06 05:57:00 18° 20° (NNE) 05:59:54 145.980
Oscar 19 10 Feb 05:54:18 05:58:20 24° 350° (N) 06:02:21 437.125/150
CUBESAT XI-V 10 Feb 05:56:15 05:59:32 18° 281° (WNW) 06:02:49 437.345
TIGRISAT 10 Feb 05:58:14 06:01:47 26° 34° (NE) 06:05:19 435.000
QB50P1 10 Feb 06:00:39 06:03:40 19° 22° (NNE) 06:06:41 145.935-145.965
CUSAT 1 10 Feb 06:04:26 06:11:31 34° 348° (NNW) 06:17:38 437.405
BRITE-PL 10 Feb 06:04:37 06:09:32 42° 95° (E) 06:14:03 437.365/2234.400
CINEMA 3 10 Feb 06:05:38 06:06:58 11° 72° (ENE) 06:08:17 145.822/145.860
LilacSat-2 10 Feb 06:09:54 06:13:38 52° 103° (ESE) 06:17:21 437.200
CUTE 1.7 + AOD 2 10 Feb 06:16:38 06:19:07 15° 77° (ENE) 06:21:36 437.475
HORYU 2 10 Feb 06:21:39 06:25:51 42° 313° (NW) 06:30:04 437.375
SEEDS 10 Feb 06:22:41 06:24:57 14° 76° (ENE) 06:27:11 437.485
Cosmos 2499 10 Feb 06:25:20 06:31:21 21° 54° (NE) 06:37:17 435.465 / 435.565
Cosmos 2491 10 Feb 06:26:22 06:29:28 12° 329° (NNW) 06:32:34 435.465 / 435.565
Gurwin Techsat 1B 10 Feb 06:27:13 06:31:30 25° 346° (NNW) 06:35:47 435.225
SO-50 10 Feb 06:28:15 06:32:41 33° 148° (SSE) 06:37:05 436.795
M-CUBED/EXP-1 PRIME 10 Feb 06:32:47 06:35:55 41° 321° (NW) 06:39:05 437.505
AAUSAT CUBESAT 2 10 Feb 06:36:42 06:38:38 13° 74° (ENE) 06:40:33 437.432
DANDE 10 Feb 06:39:15 06:47:02 37° 350° (N) 06:54:06 436.750
STRAND 1 10 Feb 06:40:54 06:45:23 29° 270° (W) 06:49:53 437.568
AUBIESAT-1 10 Feb 06:42:19 06:45:29 41° 321° (NW) 06:48:41 437.475
UNISAT 6 10 Feb 06:42:20 06:46:16 37° 46° (NE) 06:50:14 437.425
DOVE 4 10 Feb 06:49:16 06:53:20 33° 93° (E) 06:57:12 437.250
AO-7 10 Feb 06:51:37 06:59:46 60° 329° (NNW) 07:07:55 29.400- 29.500
POLYITAN 1 10 Feb 06:52:26 06:55:56 26° 35° (NE) 06:59:26 437.675
QB50P2 10 Feb 06:53:02 06:56:34 26° 35° (NE) 07:00:05 145.880/145.840
BUGSAT 1 10 Feb 06:54:02 06:57:12 21° 28° (NNE) 07:00:19 437.445
HO-68 10 Feb 06:57:51 07:04:16 33° 87° (E) 07:10:38 435.675
Cosmos 2504 10 Feb 07:00:15 07:09:00 57° 312° (NW) 07:17:45 435.465 / 435.565
CANX-2 10 Feb 07:01:21 07:05:00 26° 89° (E) 07:08:39 2200.000
ITAMSAT 1 10 Feb 07:03:36 07:07:47 25° 348° (NNW) 07:11:58 435.822/435.867
CUTE-I 10 Feb 07:03:40 07:09:06 90° 256° (WSW) 07:14:31 437.470
ZACube-1 10 Feb 07:05:29 07:05:45 10° 71° (ENE) 07:05:59 437.345
GONETS M04 10 Feb 07:09:15 07:17:04 39° 78° (ENE) 07:24:56
GOMX 1 10 Feb 07:09:26 07:14:11 60° 104° (ESE) 07:18:34 467.674
FUNcube-1 10 Feb 07:13:37 07:14:48 11° 72° (ENE) 07:15:59 145.935
Cubesat XI-IV 10 Feb 07:17:33 07:22:58 81° 300° (WNW) 07:28:22 437.490
JAS-2 10 Feb 07:20:03 07:25:43 30° 8° (N) 07:30:52 435.910
POPSAT HIP 1 10 Feb 07:22:19 07:26:04 32° 42° (NE) 07:29:50 437.405
PRISM 10 Feb 07:22:25 07:25:56 25° 270° (W) 07:29:27 437.425
NANOSAT C BR1 10 Feb 07:26:48 07:30:35 33° 42° (NE) 07:34:21 145.865
ANTELSAT 10 Feb 07:27:00 07:31:12 57° 56° (NE) 07:35:25 437.575/2403.000
DUCHIFAT 1 10 Feb 07:28:05 07:31:51 32° 42° (NE) 07:35:37 145.980
O/OREOS (USA 219) 10 Feb 07:32:04 07:35:34 23° 112° (ESE) 07:39:07 437.305
Oscar 19 10 Feb 07:32:23 07:36:29 24° 14° (NNE) 07:40:34 437.125/150
TIGRISAT 10 Feb 07:33:46 07:37:59 60° 56° (ENE) 07:42:12 435.000
QB50P1 10 Feb 07:34:46 07:38:38 35° 45° (NE) 07:42:30 145.935-145.965
YUBILEINY 10 Feb 07:36:41 07:44:46 37° 348° (NNW) 07:52:53 435.215
CINEMA 3 10 Feb 07:41:33 07:45:27 35° 95° (E) 07:49:18 145.822/145.860
COMPASS 1 10 Feb 07:42:59 07:46:46 30° 93° (E) 07:50:32 437.405
BRITE-PL 10 Feb 07:43:13 07:48:25 72° 300° (WNW) 07:53:10 437.365/2234.400
LilacSat-2 10 Feb 07:44:23 07:48:02 45° 306° (NW) 07:51:40 437.200
Oscar 11 10 Feb 07:45:00 07:48:11 19° 83° (E) 07:51:22 145.826/435.025
CUBEBUG 2 10 Feb 07:46:22 07:49:43 23° 87° (E) 07:53:05 437.445
UWE-3 10 Feb 07:46:30 07:49:36 20° 84° (E) 07:52:43 435.000/436.395/437.385
DELFI C3 10 Feb 07:48:10 07:50:21 14° 78° (ENE) 07:52:33 145.870
CUSAT 1 10 Feb 07:48:49 07:55:44 35° 14° (NNE) 08:01:31 437.405
CUTE 1.7 + AOD 2 10 Feb 07:51:55 07:56:03 45° 100° (E) 08:00:12 437.475
AIST 1 10 Feb 07:57:32 07:58:43 11° 68° (ENE) 07:59:54
SEEDS 10 Feb 07:57:43 08:01:48 42° 99° (E) 08:05:52 437.485
HORYU 2 10 Feb 07:58:15 08:01:42 23° 336° (NNW) 08:05:09 437.375
Gurwin Techsat 1B 10 Feb 08:06:02 08:10:16 25° 11° (N) 08:14:31 435.225
M-CUBED/EXP-1 PRIME 10 Feb 08:07:30 08:10:06 22° 343° (NNW) 08:12:42 437.505
SO-50 10 Feb 08:07:50 08:12:36 48° 172° (S) 08:17:19 436.795
AAUSAT CUBESAT 2 10 Feb 08:11:20 08:15:19 39° 97° (E) 08:19:17 437.432
Cosmos 2499 10 Feb 08:14:15 08:22:24 42° 81° (E) 08:30:24 435.465 / 435.565
AUBIESAT-1 10 Feb 08:16:57 08:19:35 22° 344° (NNW) 08:22:13 437.475
UNISAT 6 10 Feb 08:18:32 08:22:51 81° 249° (WSW) 08:27:10 437.425
DANDE 10 Feb 08:24:16 08:32:04 39° 17° (NNE) 08:38:51 436.750
RS-15 10 Feb 08:24:53 08:28:02 11° 77° (ENE) 08:31:14 29.354- 29.394
STRAND 1 10 Feb 08:25:17 08:26:22 11° 295° (WNW) 08:27:27 437.568
DOVE 4 10 Feb 08:27:03 08:31:33 79° 296° (WNW) 08:35:49 437.250
POLYITAN 1 10 Feb 08:27:06 08:31:16 60° 57° (ENE) 08:35:26 437.675
QB50P2 10 Feb 08:27:42 08:31:54 61° 57° (ENE) 08:36:05 145.880/145.840
BUGSAT 1 10 Feb 08:27:57 08:31:56 44° 51° (NE) 08:35:52 437.445
CANX-2 10 Feb 08:37:10 08:41:28 83° 109° (ESE) 08:45:47 2200.000
ZACube-1 10 Feb 08:39:38 08:43:25 31° 94° (E) 08:47:11 437.345
ITAMSAT 1 10 Feb 08:41:55 08:46:06 25° 12° (NNE) 08:50:17 435.822/435.867
AO-7 10 Feb 08:43:51 08:51:43 48° 356° (N) 08:59:34 29.400- 29.500
CUTE-I 10 Feb 08:43:52 08:48:54 42° 320° (NW) 08:53:56 437.470
HO-68 10 Feb 08:45:56 08:53:12 72° 113° (ESE) 09:00:25 435.675
GOMX 1 10 Feb 08:47:41 08:52:20 49° 308° (NW) 08:56:39 467.674
FUNcube-1 10 Feb 08:48:31 08:52:21 34° 95° (E) 08:56:13 145.935
HUMSAT D 10 Feb 08:55:19 08:58:32 21° 86° (E) 09:01:46 437.325/437.525
Cosmos 2504 10 Feb 08:56:08 09:04:21 39° 342° (NNW) 09:12:29 435.465 / 435.565
POPSAT HIP 1 10 Feb 08:57:20 09:01:35 83° 67° (ENE) 09:05:50 437.405
Cubesat XI-IV 10 Feb 08:57:44 09:02:41 38° 323° (NW) 09:07:38 437.490
NANOSAT C BR1 10 Feb 09:01:48 09:06:03 87° 61° (ENE) 09:10:18 145.865
DUCHIFAT 1 10 Feb 09:03:04 09:07:18 86° 62° (ENE) 09:11:32 145.980
JAS-2 10 Feb 09:03:17 09:09:42 40° 33° (NNE) 09:15:26 435.910
ANTELSAT 10 Feb 09:03:59 09:08:08 46° 259° (WSW) 09:12:18 437.575/2403.000
GONETS M04 10 Feb 09:04:21 09:13:04 81° 106° (ESE) 09:21:53
O/OREOS (USA 219) 10 Feb 09:09:52 09:14:19 58° 135° (SE) 09:18:48 437.305
QB50P1 10 Feb 09:09:58 09:14:14 85° 250° (WSW) 09:18:30 145.935-145.965
Oscar 19 10 Feb 09:10:08 09:14:52 37° 38° (NE) 09:19:36 437.125/150
AISAT 10 Feb 09:10:13 09:12:07 12° 73° (ENE) 09:14:00 437.250
TIGRISAT 10 Feb 09:10:49 09:14:55 44° 260° (W) 09:19:02 435.000
COMPASS 1 10 Feb 09:18:34 09:22:50 84° 293° (WNW) 09:27:04 437.405
CINEMA 3 10 Feb 09:18:47 09:23:00 71° 298° (WNW) 09:27:09 145.822/145.860
LilacSat-2 10 Feb 09:18:57 09:21:44 20° 328° (NNW) 09:24:30 437.200
Oscar 11 10 Feb 09:20:52 09:25:12 60° 106° (ESE) 09:29:31 145.826/435.025
UKube-1 10 Feb 09:20:58 09:22:52 13° 75° (ENE) 09:24:46 .
BRITE-PL 10 Feb 09:21:46 09:26:25 33° 324° (NW) 09:30:44 437.365/2234.400
DELFI C3 10 Feb 09:22:24 09:26:18 44° 100° (E) 09:30:13 145.870
UWE-3 10 Feb 09:22:44 09:26:54 64° 107° (ESE) 09:31:05 435.000/436.395/437.385
CUBEBUG 2 10 Feb 09:22:52 09:27:03 75° 110° (ESE) 09:31:15 437.445
CUTE 1.7 + AOD 2 10 Feb 09:27:53 09:32:07 59° 302° (WNW) 09:36:20 437.475
CUBEBUG 1 10 Feb 09:28:30 09:30:51 14° 76° (ENE) 09:33:11 437.445
50 SAT 10 Feb 09:30:52 09:33:03 15° 81° (E) 09:35:14 437.505
AIST 1 10 Feb 09:31:13 09:35:10 33° 90° (E) 09:39:07
CUSAT 1 10 Feb 09:32:21 09:39:36 52° 42° (NE) 09:45:21 437.405
ESTCUBE 1 10 Feb 09:32:59 09:36:06 18° 80° (E) 09:39:12 437.505/2401.250
DX 1 10 Feb 09:33:16 09:35:59 16° 80° (E) 09:38:41 434.975-435.025
SEEDS 10 Feb 09:33:32 09:37:46 62° 301° (WNW) 09:41:59 437.485
HORYU 2 10 Feb 09:34:11 09:37:10 18° 359° (N) 09:40:10 437.375
YUBILEINY 10 Feb 09:35:59 09:44:11 39° 19° (NNE) 09:52:23 435.215
M-CUBED/EXP-1 PRIME 10 Feb 09:41:37 09:44:02 19° 6° (N) 09:46:28 437.505
Gurwin Techsat 1B 10 Feb 09:44:24 09:49:13 36° 35° (NE) 09:54:03 435.225
AAUSAT CUBESAT 2 10 Feb 09:46:56 09:51:07 66° 299° (WNW) 09:55:18 437.432
SO-50 10 Feb 09:47:57 09:52:40 45° 195° (SSW) 09:57:17 436.795
AUBIESAT-1 10 Feb 09:50:59 09:53:27 19° 6° (N) 09:55:56 437.475
AO-85 10 Feb 09:51:14 09:54:27 16° 120° (ESE) 09:57:41 145.980
UNISAT 6 10 Feb 09:56:39 10:00:14 25° 271° (W) 10:03:49 437.425
BUGSAT 1 10 Feb 10:03:09 10:07:19 62° 253° (WSW) 10:11:26 437.445
POLYITAN 1 10 Feb 10:03:15 10:07:19 43° 260° (W) 10:11:23 437.675
QB50P2 10 Feb 10:03:54 10:07:57 43° 260° (W) 10:12:01 145.880/145.840
DOVE 4 10 Feb 10:04:55 10:08:54 31° 320° (NW) 10:12:43 437.250
Cosmos 2499 10 Feb 10:05:57 10:14:53 84° 106° (ESE) 10:23:41 435.465 / 435.565
PCSat 10 Feb 10:08:26 10:11:51 17° 115° (ESE) 10:15:16 145.827
DANDE 10 Feb 10:08:27 10:16:38 57° 44° (NE) 10:23:27 436.750
Cosmos 2491 10 Feb 10:11:52 10:14:45 12° 30° (NNE) 10:17:38 435.465 / 435.565
CANX-2 10 Feb 10:13:13 10:17:08 36° 314° (NW) 10:21:05 2200.000
ZACube-1 10 Feb 10:15:58 10:20:10 80° 294° (WNW) 10:24:24 437.345
ITAMSAT 1 10 Feb 10:19:51 10:24:38 37° 36° (NE) 10:29:25 435.822/435.867
CUTE-I 10 Feb 10:23:39 10:28:04 27° 344° (NNW) 10:32:29 437.470
FUNcube-1 10 Feb 10:24:50 10:29:01 74° 297° (WNW) 10:33:13 145.935
GOMX 1 10 Feb 10:25:47 10:29:42 25° 332° (NNW) 10:33:23 467.674
RS-15 10 Feb 10:26:46 10:35:52 29° 107° (ESE) 10:45:18 29.354- 29.394
VELOX 1 10 Feb 10:29:00 10:32:56 29° 92° (E) 10:36:51 145.980
HUMSAT D 10 Feb 10:30:47 10:34:55 69° 108° (ESE) 10:39:06 437.325/437.525
HO-68 10 Feb 10:33:53 10:40:59 61° 318° (NW) 10:48:04 435.675
POPSAT HIP 1 10 Feb 10:34:05 10:37:51 31° 266° (W) 10:41:38 437.405
AO-7 10 Feb 10:35:30 10:43:33 54° 23° (NNE) 10:51:35 29.400- 29.500
Cubesat XI-IV 10 Feb 10:37:28 10:41:49 26° 347° (NNW) 10:46:10 437.490
NANOSAT C BR1 10 Feb 10:38:35 10:42:18 29° 267° (W) 10:46:03 145.865
DUCHIFAT 1 10 Feb 10:39:47 10:43:31 29° 267° (W) 10:47:14 145.980
ANTELSAT 10 Feb 10:43:25 10:45:57 15° 282° (WNW) 10:48:29 437.575/2403.000
AISAT 10 Feb 10:45:46 10:49:55 36° 97° (E) 10:54:02 437.250
QB50P1 10 Feb 10:47:01 10:50:37 26° 269° (W) 10:54:14 145.935-145.965
JAS-2 10 Feb 10:47:07 10:54:18 73° 56° (NE) 11:00:37 435.910
Oscar 19 10 Feb 10:48:39 10:53:51 81° 61° (ENE) 10:59:03 437.125/150
O/OREOS (USA 219) 10 Feb 10:49:11 10:53:44 75° 339° (NNW) 10:58:21 437.305
TIGRISAT 10 Feb 10:50:24 10:52:45 14° 283° (WNW) 10:55:06 435.000
Cosmos 2504 10 Feb 10:52:10 11:00:19 37° 12° (NNE) 11:08:15 435.465 / 435.565
LilacSat-2 10 Feb 10:53:13 10:54:59 13° 351° (N) 10:56:45 437.200
COMPASS 1 10 Feb 10:54:21 10:58:06 32° 317° (NW) 11:01:51 437.405
UKube-1 10 Feb 10:56:06 11:00:11 37° 98° (E) 11:04:14 .
CINEMA 3 10 Feb 10:56:08 10:59:46 28° 321° (NW) 11:03:19 145.822/145.860
Oscar 11 10 Feb 10:57:10 11:01:21 47° 308° (NW) 11:05:33 145.826/435.025
DELFI C3 10 Feb 10:57:25 11:01:24 56° 303° (WNW) 11:05:23 145.870
UWE-3 10 Feb 10:59:24 11:03:21 42° 309° (NW) 11:07:19 435.000/436.395/437.385
CUBEBUG 2 10 Feb 10:59:43 11:03:35 37° 312° (NW) 11:07:27 437.445
BRITE-PL 10 Feb 10:59:50 11:03:48 22° 348° (NNW) 11:07:35 437.365/2234.400
GONETS M04 10 Feb 11:02:05 11:10:38 56° 314° (NW) 11:19:17
CUTE 1.7 + AOD 2 10 Feb 11:03:55 11:07:26 25° 325° (NW) 11:10:58 437.475
CUBEBUG 1 10 Feb 11:04:07 11:08:20 41° 99° (E) 11:12:30 437.445
50 SAT 10 Feb 11:04:16 11:07:58 49° 103° (ESE) 11:11:41 437.505
SPROUT 10 Feb 11:04:34 11:08:12 26° 89° (E) 11:11:47 437.525
AIST 1 10 Feb 11:08:05 11:12:31 79° 292° (WNW) 11:16:58
DX 1 10 Feb 11:08:59 11:13:15 47° 103° (ESE) 11:17:29 434.975-435.025
HORYU 2 10 Feb 11:09:13 11:12:37 22° 23° (NNE) 11:16:03 437.375
SEEDS 10 Feb 11:09:26 11:12:59 26° 323° (NW) 11:16:32 437.485
ESTCUBE 1 10 Feb 11:09:28 11:13:57 52° 103° (ESE) 11:18:25 437.505/2401.250
TISAT 1 10 Feb 11:12:02 11:14:50 17° 82° (E) 11:17:39 437.305
M-CUBED/EXP-1 PRIME 10 Feb 11:15:09 11:18:05 28° 29° (NNE) 11:20:58 437.505
CUSAT 1 10 Feb 11:15:11 11:22:29 80° 250° (WSW) 11:28:07 437.405
AAUSAT CUBESAT 2 10 Feb 11:22:38 11:26:11 27° 322° (NW) 11:29:44 437.432
Gurwin Techsat 1B 10 Feb 11:23:26 11:28:45 74° 58° (ENE) 11:34:05 435.225
AUBIESAT-1 10 Feb 11:24:28 11:27:25 29° 29° (NNE) 11:30:21 437.475
SWISSCUBE 10 Feb 11:26:31 11:27:49 11° 68° (ENE) 11:29:07 437.505
SO-50 10 Feb 11:28:17 11:32:27 28° 219° (SW) 11:36:32 436.795
AO-85 10 Feb 11:28:54 11:33:46 33° 143° (SE) 11:38:34 145.980
YUBILEINY 10 Feb 11:34:09 11:42:57 59° 49° (NE) 11:51:41 435.215
BUGSAT 1 10 Feb 11:40:28 11:43:31 19° 275° (W) 11:46:33 437.445
POLYITAN 1 10 Feb 11:41:55 11:44:14 14° 282° (WNW) 11:46:33 437.675
DOVE 4 10 Feb 11:42:28 11:45:39 19° 344° (NNW) 11:48:43 437.250
QB50P2 10 Feb 11:42:36 11:44:53 14° 283° (WNW) 11:47:09 145.880/145.840
PCSat 10 Feb 11:49:04 11:54:02 38° 138° (SE) 11:59:03 145.827
CANX-2 10 Feb 11:49:08 11:52:11 19° 337° (NNW) 11:55:14 2200.000
DANDE 10 Feb 11:51:58 12:00:11 78° 252° (WSW) 12:06:49 436.750
ZACube-1 10 Feb 11:52:29 11:56:09 30° 318° (NW) 11:59:50 437.345
ITAMSAT 1 10 Feb 11:58:31 12:03:44 79° 59° (ENE) 12:09:00 435.822/435.867
Cosmos 2499 10 Feb 12:00:04 12:08:48 55° 314° (NW) 12:17:22 435.465 / 435.565
FUNcube-1 10 Feb 12:01:19 12:04:55 29° 320° (NW) 12:08:31 145.935
Cosmos 2491 10 Feb 12:01:55 12:08:17 24° 59° (ENE) 12:14:40 435.465 / 435.565
CUTE-I 10 Feb 12:02:41 12:06:57 25° 8° (N) 12:11:14 437.470
ITUPSAT 1 10 Feb 12:02:42 12:05:37 16° 77° (ENE) 12:08:32 437.325
GOMX 1 10 Feb 12:03:14 12:06:37 19° 356° (N) 12:09:51 467.674
VELOX 1 10 Feb 12:05:30 12:10:00 90° 98° (E) 12:14:27 145.980
HUMSAT D 10 Feb 12:06:36 12:10:30 40° 310° (NW) 12:14:24 437.325/437.525
BEESAT 10 Feb 12:10:44 12:13:54 17° 79° (ENE) 12:17:04 436.000
Cubesat XI-IV 10 Feb 12:16:24 12:20:42 25° 12° (NNE) 12:25:03 437.490
HO-68 10 Feb 12:21:20 12:27:57 41° 343° (NNW) 12:34:34 435.675
AISAT 10 Feb 12:22:21 12:26:49 74° 298° (WNW) 12:31:14 437.250
LilacSat-2 10 Feb 12:26:11 12:28:06 14° 14° (NNE) 12:30:01 437.200
AO-7 10 Feb 12:27:32 12:35:56 82° 49° (NE) 12:44:20 29.400- 29.500
Oscar 19 10 Feb 12:28:49 12:33:40 39° 264° (W) 12:38:31 437.125/150
O/OREOS (USA 219) 10 Feb 12:29:00 12:33:32 63° 4° (N) 12:38:06 437.305
COMPASS 1 10 Feb 12:29:57 12:32:47 18° 340° (NNW) 12:35:38 437.405
UKube-1 10 Feb 12:32:15 12:36:36 72° 301° (WNW) 12:40:56 .
DELFI C3 10 Feb 12:32:33 12:35:48 24° 325° (NW) 12:39:03 145.870
JAS-2 10 Feb 12:32:39 12:39:43 53° 259° (W) 12:46:01 435.910
CINEMA 3 10 Feb 12:33:11 12:35:57 17° 345° (NNW) 12:38:39 145.822/145.860
Oscar 11 10 Feb 12:33:25 12:36:50 23° 331° (NNW) 12:40:15 145.826/435.025
RS-15 10 Feb 12:34:51 12:45:44 53° 137° (SE) 12:57:10 29.354- 29.394
UWE-3 10 Feb 12:36:01 12:39:08 21° 332° (NNW) 12:42:15 435.000/436.395/437.385
CUBEBUG 2 10 Feb 12:36:28 12:39:27 19° 335° (NNW) 12:42:25 437.445
BRITE-PL 10 Feb 12:36:59 12:41:00 22° 12° (NNE) 12:44:50 437.365/2234.400
50 SAT 10 Feb 12:38:25 12:42:05 48° 305° (NW) 12:45:46 437.505
CUTE 1.7 + AOD 2 10 Feb 12:39:35 12:42:15 16° 348° (NNW) 12:44:56 437.475
SPROUT 10 Feb 12:40:29 12:44:49 82° 112° (ESE) 12:49:06 437.525
CUBEBUG 1 10 Feb 12:40:31 12:44:56 65° 301° (WNW) 12:49:16 437.445
HORYU 2 10 Feb 12:44:17 12:48:26 41° 46° (NE) 12:52:37 437.375
SEEDS 10 Feb 12:45:01 12:47:41 17° 347° (NNW) 12:50:22 437.485
DX 1 10 Feb 12:45:18 12:49:38 58° 305° (NW) 12:53:56 434.975-435.025
ESTCUBE 1 10 Feb 12:46:26 12:50:55 56° 306° (NW) 12:55:24 437.505/2401.250
AIST 1 10 Feb 12:46:50 12:50:46 30° 317° (NW) 12:54:42
Cosmos 2504 10 Feb 12:47:11 12:55:52 51° 42° (NE) 13:04:11 435.465 / 435.565
TISAT 1 10 Feb 12:47:19 12:51:28 53° 104° (ESE) 12:55:34 437.305
M-CUBED/EXP-1 PRIME 10 Feb 12:49:07 12:52:31 75° 51° (NE) 12:55:49 437.505
CUSAT 1 10 Feb 12:57:48 13:04:01 34° 277° (W) 13:09:03 437.405
AAUSAT CUBESAT 2 10 Feb 12:58:03 13:00:42 17° 345° (NNW) 13:03:22 437.432
AUBIESAT-1 10 Feb 12:58:23 13:01:47 77° 51° (NE) 13:05:08 437.475
GONETS M04 10 Feb 13:01:30 13:09:31 38° 344° (NNW) 13:17:36
SWISSCUBE 10 Feb 13:02:54 13:07:13 31° 92° (E) 13:11:30 437.505
Gurwin Techsat 1B 10 Feb 13:04:01 13:09:06 44° 261° (W) 13:14:13 435.225
AO-85 10 Feb 13:08:22 13:13:41 50° 166° (SSE) 13:18:51 145.980
SO-50 10 Feb 13:09:40 13:11:38 12° 241° (WSW) 13:13:35 436.795
DOVE 4 10 Feb 13:19:05 13:22:07 18° 8° (N) 13:25:04 437.250
STARS 10 Feb 13:24:19 13:24:50 10° 70° (ENE) 13:25:20 437.465
CANX-2 10 Feb 13:24:21 13:26:51 15° 0° (N) 13:29:23 2200.000
ZACube-1 10 Feb 13:28:48 13:31:33 17° 342° (NNW) 13:34:19 437.345
YUBILEINY 10 Feb 13:31:28 13:40:20 76° 258° (WSW) 13:49:09 435.215
PCSat 10 Feb 13:31:33 13:36:56 63° 162° (SSE) 13:42:20 145.827
DANDE 10 Feb 13:35:12 13:42:21 37° 278° (W) 13:48:22 436.750
FUNcube-1 10 Feb 13:37:33 13:40:14 17° 343° (NNW) 13:42:56 145.935
ITAMSAT 1 10 Feb 13:38:45 13:43:40 40° 263° (W) 13:48:38 435.822/435.867
MOZHAYETS 4 10 Feb 13:39:26 13:41:19 12° 71° (ENE) 13:43:13
GOMX 1 10 Feb 13:39:42 13:43:28 22° 20° (NNE) 13:47:04 467.674
ITUPSAT 1 10 Feb 13:40:05 13:44:43 44° 100° (E) 13:49:21 437.325
CUTE-I 10 Feb 13:41:11 13:45:59 35° 32° (NNE) 13:50:48 437.470
KKS-1 10 Feb 13:41:20 13:44:19 17° 81° (E) 13:47:17 437.445
VELOX 1 10 Feb 13:42:09 13:46:13 36° 318° (NW) 13:50:17 145.980
HUMSAT D 10 Feb 13:42:24 13:45:25 20° 333° (NNW) 13:48:27 437.325/437.525
BEESAT 10 Feb 13:48:10 13:52:52 48° 102° (ESE) 13:57:31 436.000
Cubesat XI-IV 10 Feb 13:54:56 13:59:49 37° 35° (NE) 14:04:44 437.490
Cosmos 2491 10 Feb 13:55:00 14:03:14 49° 86° (E) 14:11:29 435.465 / 435.565
Cosmos 2499 10 Feb 13:55:47 14:03:57 38° 344° (NNW) 14:11:52 435.465 / 435.565
LilacSat-2 10 Feb 13:58:25 14:01:25 22° 37° (NE) 14:04:25 437.200
AISAT 10 Feb 13:59:00 14:02:55 31° 322° (NW) 14:06:49 437.250
COMPASS 1 10 Feb 14:04:44 14:07:10 15° 3° (N) 14:09:37 437.405
DELFI C3 10 Feb 14:07:21 14:09:42 15° 348° (NNW) 14:12:02 145.870
HO-68 10 Feb 14:08:02 14:14:34 39° 9° (N) 14:21:06 435.675
UKube-1 10 Feb 14:08:28 14:12:15 30° 323° (NW) 14:16:03 .
O/OREOS (USA 219) 10 Feb 14:08:40 14:13:15 87° 24° (NNE) 14:17:53 437.305
Oscar 11 10 Feb 14:09:09 14:11:51 16° 354° (N) 14:14:34 145.826/435.025
CINEMA 3 10 Feb 14:09:15 14:11:52 16° 9° (N) 14:14:28 145.822/145.860
Oscar 19 10 Feb 14:11:43 14:14:30 14° 288° (WNW) 14:17:17 437.125/150
UWE-3 10 Feb 14:12:05 14:14:29 15° 356° (N) 14:16:54 435.000/436.395/437.385
CUBEBUG 2 10 Feb 14:12:32 14:14:56 15° 359° (N) 14:17:19 437.445
50 SAT 10 Feb 14:12:41 14:15:33 21° 327° (NNW) 14:18:24 437.505
BRITE-PL 10 Feb 14:13:36 14:18:24 32° 35° (NE) 14:22:57 437.365/2234.400
CUTE 1.7 + AOD 2 10 Feb 14:14:13 14:16:52 16° 11° (NNE) 14:19:32 437.475
SPROUT 10 Feb 14:16:40 14:20:37 37° 314° (NW) 14:24:33 437.525
CUBEBUG 1 10 Feb 14:16:58 14:20:45 28° 324° (NW) 14:24:30 437.445
SEEDS 10 Feb 14:19:37 14:22:11 16° 10° (N) 14:24:46 437.485
HORYU 2 10 Feb 14:20:27 14:24:53 76° 248° (WSW) 14:29:22 437.375
JAS-2 10 Feb 14:20:43 14:26:11 23° 283° (WNW) 14:31:15 435.910
AO-7 10 Feb 14:21:10 14:29:21 54° 255° (WSW) 14:37:35 29.400- 29.500
DX 1 10 Feb 14:21:38 14:25:18 26° 328° (NNW) 14:28:57 434.975-435.025
TISAT 1 10 Feb 14:23:08 14:27:13 50° 307° (NW) 14:31:17 437.305
ESTCUBE 1 10 Feb 14:23:21 14:27:09 26° 328° (NNW) 14:30:57 437.505/2401.250
M-CUBED/EXP-1 PRIME 10 Feb 14:24:32 14:27:32 28° 252° (WSW) 14:30:28 437.505
AIST 1 10 Feb 14:26:44 14:29:45 18° 343° (NNW) 14:32:45
AAUSAT CUBESAT 2 10 Feb 14:32:31 14:34:59 15° 8° (N) 14:37:29 437.432
AUBIESAT-1 10 Feb 14:33:45 14:36:45 28° 253° (WSW) 14:39:42 437.475
SWISSCUBE 10 Feb 14:40:46 14:45:38 88° 115° (ESE) 14:50:29 437.505
CUSAT 1 10 Feb 14:40:49 14:44:17 15° 303° (WNW) 14:47:27 437.405
Cosmos 2504 10 Feb 14:41:16 14:50:15 90° 84° (E) 14:58:45 435.465 / 435.565
RS-15 10 Feb 14:45:37 14:57:06 71° 168° (SSE) 15:09:09 29.354- 29.394
Gurwin Techsat 1B 10 Feb 14:47:07 14:50:28 17° 286° (WNW) 14:53:51 435.225
AO-85 10 Feb 14:48:30 14:53:49 52° 190° (S) 14:58:56 145.980
DOVE 4 10 Feb 14:54:55 14:58:45 25° 31° (NNE) 15:02:25 437.250
CANX-2 10 Feb 14:58:31 15:01:33 19° 23° (NNE) 15:04:36 2200.000
STARS 10 Feb 14:58:43 15:02:38 31° 93° (E) 15:06:33 437.465
GONETS M04 10 Feb 15:00:54 15:08:57 38° 15° (NNE) 15:17:02
ZACube-1 10 Feb 15:04:14 15:06:40 15° 5° (N) 15:09:04 437.345
FUNcube-1 10 Feb 15:12:52 15:15:17 15° 7° (N) 15:17:43 145.935
PCSat 10 Feb 15:14:44 15:20:10 70° 187° (S) 15:25:36 145.827
MOZHAYETS 4 10 Feb 15:15:38 15:19:55 35° 94° (E) 15:24:11
GOMX 1 10 Feb 15:16:00 15:20:40 37° 43° (NE) 15:25:05 467.674
KKS-1 10 Feb 15:17:32 15:21:55 52° 104° (ESE) 15:26:16 437.445
HUMSAT D 10 Feb 15:17:36 15:19:57 15° 356° (N) 15:22:17 437.325/437.525
ITUPSAT 1 10 Feb 15:18:04 15:22:53 68° 303° (WNW) 15:27:41 437.325
VELOX 1 10 Feb 15:18:34 15:21:51 21° 341° (NNW) 15:25:09 145.980
DANDE 10 Feb 15:18:34 15:23:15 17° 303° (WNW) 15:27:31 436.750
CUTE-I 10 Feb 15:20:13 15:25:32 69° 56° (NE) 15:30:55 437.470
ITAMSAT 1 10 Feb 15:21:38 15:24:37 15° 287° (WNW) 15:27:38 435.822/435.867
BEESAT 10 Feb 15:26:08 15:30:54 63° 305° (NW) 15:35:39 436.000
YUBILEINY 10 Feb 15:28:21 15:36:10 37° 285° (WNW) 15:43:57 435.215
LilacSat-2 10 Feb 15:31:30 15:35:15 56° 59° (ENE) 15:39:00 437.200
Cubesat XI-IV 10 Feb 15:34:09 15:39:30 77° 59° (ENE) 15:44:55 437.490
AISAT 10 Feb 15:35:19 15:38:30 19° 345° (NNW) 15:41:38 437.250
COMPASS 1 10 Feb 15:38:31 15:41:36 20° 27° (NNE) 15:44:42 437.405
DELFI C3 10 Feb 15:41:06 15:43:24 15° 11° (N) 15:45:42 145.870
Oscar 11 10 Feb 15:43:49 15:46:47 18° 17° (NNE) 15:49:45 145.826/435.025
UKube-1 10 Feb 15:44:20 15:47:23 19° 346° (NNW) 15:50:25 .
CINEMA 3 10 Feb 15:44:29 15:47:58 24° 32° (NNE) 15:51:21 145.822/145.860
50 SAT 10 Feb 15:46:39 15:48:32 13° 350° (N) 15:50:26 437.505
UWE-3 10 Feb 15:47:00 15:49:46 18° 19° (NNE) 15:52:32 435.000/436.395/437.385
CUBEBUG 2 10 Feb 15:47:29 15:50:24 19° 23° (NNE) 15:53:18 437.445
O/OREOS (USA 219) 10 Feb 15:48:10 15:52:30 44° 232° (SW) 15:56:52 437.305
CUTE 1.7 + AOD 2 10 Feb 15:48:12 15:51:40 25° 34° (NE) 15:55:09 437.475
BRITE-PL 10 Feb 15:50:50 15:56:21 64° 58° (ENE) 16:01:33 437.365/2234.400
Cosmos 2491 10 Feb 15:50:59 15:59:45 83° 295° (WNW) 16:08:33 435.465 / 435.565
Cosmos 2499 10 Feb 15:51:31 15:59:37 37° 14° (NNE) 16:07:22 435.465 / 435.565
SPROUT 10 Feb 15:52:40 15:55:47 20° 337° (NNW) 15:58:53 437.525
CUBEBUG 1 10 Feb 15:53:02 15:56:03 18° 348° (NNW) 15:59:03 437.445
SEEDS 10 Feb 15:53:27 15:56:50 24° 33° (NNE) 16:00:14 437.485
HO-68 10 Feb 15:54:26 16:01:22 53° 35° (NE) 16:08:19 435.675
DX 1 10 Feb 15:57:29 16:00:29 18° 351° (N) 16:03:28 434.975-435.025
CUBESAT XI-V 10 Feb 15:58:14 16:01:48 21° 81° (E) 16:05:21 437.345
HORYU 2 10 Feb 15:58:32 16:02:11 25° 271° (W) 16:05:51 437.375
TISAT 1 10 Feb 15:58:57 16:02:18 23° 330° (NNW) 16:05:37 437.305
ESTCUBE 1 10 Feb 15:59:46 16:02:55 19° 352° (N) 16:06:03 437.505/2401.250
AAUSAT CUBESAT 2 10 Feb 16:06:09 16:09:25 22° 31° (NNE) 16:12:41 437.432
AIST 1 10 Feb 16:06:17 16:09:04 16° 8° (N) 16:11:50
AO-7 10 Feb 16:17:32 16:24:11 25° 282° (WNW) 16:30:52 29.400- 29.500
SWISSCUBE 10 Feb 16:18:44 16:23:13 39° 318° (NW) 16:27:40 437.505
AO-85 10 Feb 16:28:51 16:33:47 36° 214° (SSW) 16:38:28 145.980
DOVE 4 10 Feb 16:31:10 16:35:51 52° 54° (NE) 16:40:17 437.250
CANX-2 10 Feb 16:32:41 16:36:35 36° 47° (NE) 16:40:31 2200.000
Cosmos 2504 10 Feb 16:34:51 16:43:06 46° 277° (W) 16:51:00 435.465 / 435.565
STARS 10 Feb 16:35:07 16:39:33 86° 291° (WNW) 16:43:56 437.465
ZACube-1 10 Feb 16:38:43 16:41:51 21° 28° (NNE) 16:44:59 437.345
FUNcube-1 10 Feb 16:47:16 16:50:27 22° 30° (NNE) 16:53:39 145.935
HUMSAT D 10 Feb 16:51:40 16:54:24 17° 20° (NNE) 16:57:09 437.325/437.525
MOZHAYETS 4 10 Feb 16:52:53 16:57:33 80° 298° (WNW) 17:02:13
GOMX 1 10 Feb 16:53:15 16:58:29 85° 66° (ENE) 17:03:23 467.674
VELOX 1 10 Feb 16:54:11 16:57:11 18° 4° (N) 17:00:11 145.980
KKS-1 10 Feb 16:54:16 16:58:39 55° 306° (NW) 17:02:59 437.445
ITUPSAT 1 10 Feb 16:56:01 17:00:16 32° 326° (NW) 17:04:31 437.325
STRAND 1 10 Feb 16:56:23 16:59:27 16° 74° (ENE) 17:02:31 437.568
RS-15 10 Feb 16:57:23 17:08:58 68° 199° (SSW) 17:21:04 29.354- 29.394
PCSat 10 Feb 16:58:01 17:03:16 49° 212° (SSW) 17:08:30 145.827
GONETS M04 10 Feb 16:59:13 17:07:51 55° 46° (NE) 17:16:30
CUTE-I 10 Feb 17:00:44 17:05:55 48° 259° (W) 17:11:09 437.470
BEESAT 10 Feb 17:04:01 17:08:10 30° 328° (NNW) 17:12:19 436.000
LilacSat-2 10 Feb 17:06:09 17:09:46 40° 261° (W) 17:13:24 437.200
AISAT 10 Feb 17:10:46 17:13:49 18° 9° (N) 17:16:51 437.250
COMPASS 1 10 Feb 17:12:30 17:16:26 40° 49° (NE) 17:20:23 437.405
BEESAT 3 10 Feb 17:12:35 17:14:50 15° 130° (SE) 17:17:05 437.485
DELFI C3 10 Feb 17:14:05 17:17:16 23° 34° (NE) 17:20:28 145.870
Cubesat XI-IV 10 Feb 17:14:58 17:20:02 42° 262° (W) 17:25:10 437.490
Oscar 11 10 Feb 17:18:11 17:21:59 31° 40° (NE) 17:25:49 145.826/435.025
UKube-1 10 Feb 17:19:20 17:22:18 18° 10° (N) 17:25:15 .
50 SAT 10 Feb 17:19:25 17:21:22 14° 13° (NNE) 17:23:21 437.505
CINEMA 3 10 Feb 17:20:15 17:24:33 52° 55° (NE) 17:28:42 145.822/145.860
UWE-3 10 Feb 17:21:40 17:25:21 31° 42° (NE) 17:29:02 435.000/436.395/437.385
CUBEBUG 2 10 Feb 17:22:23 17:26:13 35° 46° (NE) 17:30:01 437.445
CUTE 1.7 + AOD 2 10 Feb 17:22:49 17:26:59 57° 57° (ENE) 17:31:11 437.475
YUBILEINY 10 Feb 17:25:07 17:30:27 18° 313° (NW) 17:35:48 435.215
SEEDS 10 Feb 17:27:51 17:31:58 53° 56° (NE) 17:36:07 437.485
SPROUT 10 Feb 17:27:58 17:30:36 16° 1° (N) 17:33:14 437.525
O/OREOS (USA 219) 10 Feb 17:28:08 17:31:00 17° 255° (WSW) 17:33:53 437.305
CUBEBUG 1 10 Feb 17:28:10 17:31:09 18° 11° (N) 17:34:07 437.445
BRITE-PL 10 Feb 17:29:35 17:35:03 52° 260° (W) 17:40:14 437.365/2234.400
DX 1 10 Feb 17:32:25 17:35:31 19° 14° (NNE) 17:38:38 434.975-435.025
TISAT 1 10 Feb 17:34:17 17:36:55 16° 353° (N) 17:39:32 437.305
ESTCUBE 1 10 Feb 17:35:15 17:38:32 20° 15° (NNE) 17:41:49 437.505/2401.250
CUBESAT XI-V 10 Feb 17:35:26 17:40:09 59° 104° (ESE) 17:44:50 437.345
BEESAT 2 10 Feb 17:37:55 17:40:24 16° 131° (SE) 17:42:54 435.950
AAUSAT CUBESAT 2 10 Feb 17:40:15 17:44:17 49° 54° (NE) 17:48:21 437.432
HO-68 10 Feb 17:41:38 17:48:53 88° 241° (WSW) 17:56:10 435.675
AIST 1 10 Feb 17:44:37 17:48:13 24° 34° (NE) 17:51:48
Cosmos 2499 10 Feb 17:46:12 17:54:50 53° 43° (NE) 18:02:56 435.465 / 435.565
Cosmos 2491 10 Feb 17:49:22 17:57:46 48° 323° (NW) 18:06:12 435.465 / 435.565
SWISSCUBE 10 Feb 17:56:24 18:00:10 23° 341° (NNW) 18:03:55 437.505
CANX-2 10 Feb 18:08:00 18:12:16 81° 249° (WSW) 18:16:35 2200.000
DOVE 4 10 Feb 18:08:51 18:13:39 58° 256° (WSW) 18:18:12 437.250
AO-85 10 Feb 18:09:39 18:13:08 18° 237° (WSW) 18:16:31 145.980
STARS 10 Feb 18:11:40 18:15:38 34° 319° (NW) 18:19:36 437.465
ZACube-1 10 Feb 18:13:30 18:17:28 44° 51° (NE) 18:21:26 437.345
AO-7 10 Feb 18:19:03 18:20:44 11° 312° (NW) 18:22:25 29.400- 29.500
FUNcube-1 10 Feb 18:22:05 18:26:04 47° 53° (NE) 18:30:05 145.935
HUMSAT D 10 Feb 18:25:33 18:29:10 31° 43° (NE) 18:32:50 437.325/437.525
Cosmos 2504 10 Feb 18:28:14 18:34:28 22° 304° (NW) 18:40:33 435.465 / 435.565
VELOX 1 10 Feb 18:29:00 18:32:35 24° 28° (NNE) 18:36:09 145.980
MOZHAYETS 4 10 Feb 18:30:14 18:34:24 33° 319° (NW) 18:38:33
KKS-1 10 Feb 18:30:57 18:34:39 26° 329° (NNW) 18:38:19 437.445
GOMX 1 10 Feb 18:32:18 18:37:05 35° 267° (W) 18:41:35 467.674
ITUPSAT 1 10 Feb 18:33:31 18:37:07 21° 349° (N) 18:40:44 437.325
STRAND 1 10 Feb 18:35:07 18:40:02 42° 98° (E) 18:44:57 437.568
BEESAT 10 Feb 18:41:24 18:44:56 21° 351° (N) 18:48:29 436.000
PCSat 10 Feb 18:41:26 18:45:49 25° 235° (SW) 18:50:10 145.827
LilacSat-2 10 Feb 18:43:31 18:45:08 12° 283° (WNW) 18:46:46 437.200
CUTE-I 10 Feb 18:43:38 18:47:18 18° 283° (WNW) 18:50:59 437.470
AISAT 10 Feb 18:45:33 18:49:16 26° 32° (NNE) 18:53:00 437.250
DELFI C3 10 Feb 18:47:42 18:51:37 53° 57° (ENE) 18:55:35 145.870
COMPASS 1 10 Feb 18:47:44 18:51:55 70° 252° (WSW) 18:56:09 437.405
BEESAT 3 10 Feb 18:48:07 18:51:39 31° 152° (SSE) 18:55:12 437.485
PRISM 10 Feb 18:48:39 18:52:10 25° 90° (E) 18:55:39 437.425
50 SAT 10 Feb 18:51:28 18:54:25 22° 35° (NE) 18:57:23 437.505
Oscar 11 10 Feb 18:53:26 18:57:46 78° 62° (ENE) 19:02:08 145.826/435.025
UKube-1 10 Feb 18:53:42 18:57:21 27° 33° (NNE) 19:01:00 .
GONETS M04 10 Feb 18:56:37 19:05:26 82° 255° (WSW) 19:14:16
UWE-3 10 Feb 18:57:20 19:01:32 84° 66° (ENE) 19:05:44 435.000/436.395/437.385
CINEMA 3 10 Feb 18:57:29 19:01:50 52° 257° (WSW) 19:06:02 145.822/145.860
Cubesat XI-IV 10 Feb 18:58:22 19:01:36 16° 286° (WNW) 19:04:51 437.490
CUBEBUG 2 10 Feb 18:58:26 19:02:41 83° 248° (WSW) 19:06:53 437.445
CUTE 1.7 + AOD 2 10 Feb 18:58:55 19:03:01 46° 259° (W) 19:07:10 437.475
SPROUT 10 Feb 19:02:16 19:05:26 20° 24° (NNE) 19:08:35 437.525
CUBEBUG 1 10 Feb 19:02:42 19:06:26 27° 34° (NE) 19:10:09 437.445
SEEDS 10 Feb 19:03:42 19:07:49 50° 258° (WSW) 19:11:58 437.485
DX 1 10 Feb 19:06:56 19:10:48 31° 38° (NE) 19:14:39 434.975-435.025
TISAT 1 10 Feb 19:08:35 19:11:25 18° 16° (NNE) 19:14:14 437.305
RS-15 10 Feb 19:09:07 19:20:09 48° 229° (SW) 19:31:32 29.354- 29.394
ESTCUBE 1 10 Feb 19:10:21 19:14:24 32° 38° (NE) 19:18:27 437.505/2401.250
BRITE-PL 10 Feb 19:10:36 19:14:39 20° 282° (WNW) 19:18:35 437.365/2234.400
CUBESAT XI-V 10 Feb 19:13:00 19:17:36 51° 308° (NW) 19:22:11 437.345
BEESAT 2 10 Feb 19:13:48 19:17:25 32° 154° (SSE) 19:21:03 435.950
AAUSAT CUBESAT 2 10 Feb 19:15:46 19:19:52 54° 256° (WSW) 19:24:01 437.432
AIST 1 10 Feb 19:22:24 19:26:45 54° 58° (ENE) 19:31:03
YUBILEINY 10 Feb 19:22:47 19:23:29 10° 343° (NNW) 19:24:12 435.215
HO-68 10 Feb 19:30:42 19:37:27 41° 265° (W) 19:44:15 435.675
SWISSCUBE 10 Feb 19:33:18 19:36:48 21° 5° (N) 19:40:20 437.505
AIST 2 10 Feb 19:38:57 19:42:07 21° 138° (SE) 19:45:17 435.215
Cosmos 2499 10 Feb 19:40:00 19:48:50 86° 251° (WSW) 19:57:04 435.465 / 435.565
CANX-2 10 Feb 19:45:12 19:48:46 25° 272° (W) 19:52:22 2200.000
STARS 10 Feb 19:47:58 19:51:09 20° 342° (NNW) 19:54:20 437.465
DOVE 4 10 Feb 19:48:44 19:52:17 20° 278° (W) 19:55:43 437.250
Cosmos 2491 10 Feb 19:49:00 19:56:55 36° 354° (N) 20:04:52 435.465 / 435.565
ZACube-1 10 Feb 19:49:38 19:53:46 61° 253° (WSW) 19:57:55 437.345
UNISAT 6 10 Feb 19:57:25 19:58:04 10° 70° (ENE) 19:58:44 437.425
FUNcube-1 10 Feb 19:58:17 20:02:23 56° 255° (WSW) 20:06:31 145.935
HUMSAT D 10 Feb 20:00:25 20:04:32 85° 67° (ENE) 20:08:41 437.325/437.525
